Regional Weather Roundup
Issued by NWS

Home | Current Version | Previous Version | Graphics & Text | Print | Product List | Glossary On
Versions: 1 2 3 4 5 6 7 8 9 10 11 12 13 14 15 16 17 18 19 20 21 22 23 24 25 26 27 28 29 30 31 32 33 34 35 36 37 38 39 40 41 42 43 44 45 46 47 48 49 50
000
ASUS45 KABQ 030501
RWRNM
WEATHER ROUNDUP FOR NEW MEXICO
NATIONAL WEATHER SERVICE ALBUQUERQUE NM
1100 PM MDT TUE SEP 02 2014

NOTE: "FAIR" MEANS FEW OR NO CLOUDS BELOW 12,000 FEET AGL WITH NO
       SIGNIFICANT WEATHER OR OBSTRUCTIONS TO VISION.

      THIS PRODUCT IS RELEASED AS TWO VERSIONS.  ONE VERSION NEAR
      THE TOP OF THE HOUR CONTAINING PRELIMINARY DATA FROM ALBUQUERQUE
      AND OTHER STATIONS.  A FINAL VERSION WITH ADDITIONAL DATA IS
      ISSUED ABOUT 10 MINUTES AFTER THE HOUR.

NMZ501-503-504-510>518-030600-
NORTHWEST PLATEAU/NORTHCENTRAL MOUNTAINS

CITY           SKY/WX    TMP DP  RH WIND       PRES   REMARKS
FARMINGTON     CLEAR     71  32  23 N7        30.02R
LOS ALAMOS     CLEAR     73  27  18 SW8       30.19S
SANTA FE       CLEAR     68  35  29 CALM      30.13R
ANGEL FIRE     FAIR      51  38  63 CALM      30.31R

$$
NMZ402-403-502-505>509-030600-
WESTCENTRAL MOUNTAINS/SOUTHWEST MOUNTAINS

CITY           SKY/WX    TMP DP  RH WIND       PRES   REMARKS
GALLUP         CLEAR     60  20  21 NE3       30.14R
SILVER CITY    CLEAR     72  32  23 N10       30.09S

$$
NMZ407-409-411-412-030600-
SOUTHERN DESERTS

CITY           SKY/WX    TMP DP  RH WIND       PRES   REMARKS
LORDSBURG      FAIR      73  34  23 NW3       29.99S
DEMING         CLEAR     76  34  21 NW8       29.98R
LAS CRUCES     CLEAR     81  29  15 W10       29.99S
HOLLOMAN AFB   CLEAR     78  36  22 SE6       29.94R
ALAMOGORDO     CLEAR     75  32  20 E3        29.96S
T OR C         CLEAR     81  33  17 SW7       29.99R

$$
NMZ519>523-030600-
CENTRAL VALLEYS/CENTRAL HIGHLANDS

CITY           SKY/WX    TMP DP  RH WIND       PRES   REMARKS
ALBUQUERQUE    PTCLDY    79  38  22 E9        30.03S
DOUBLE EAGLE   CLEAR     68  32  26 S6        30.08S
CLINES CORNERS CLEAR     68  42  38 S13       30.19F
BELEN          FAIR      71  38  29 SE3       30.02S
SOCORRO        FAIR      74  38  26 SW8       30.00R

$$
NMZ524>526-539-540-030600-
SOUTHCENTRAL MOUNTAINS

CITY           SKY/WX    TMP DP  RH WIND       PRES   REMARKS
RUIDOSO        NOT AVBL

$$
NMZ527>531-030600-
NORTHEAST HIGHLANDS/NORTHEAST PLAINS

CITY           SKY/WX    TMP DP  RH WIND       PRES   REMARKS
LAS VEGAS      CLEAR     62  43  49 S8        30.19R
RATON          CLEAR     67  51  56 W7        30.14S
CLAYTON        PTCLDY    69  60  73 SE7       30.04F

$$
NMZ532>537-030600-
EASTCENTRAL PLAINS

CITY           SKY/WX    TMP DP  RH WIND       PRES   REMARKS
TUCUMCARI      CLEAR     81  55  40 S15G21    29.95S
CANNON AFB     CLEAR     80  57  46 SE17      30.02R
CLOVIS AIRPORT   N/A     79  55  44 S17G23    30.05R

$$
NMZ028-029-538-030600-
SOUTHEAST PLAINS

CITY           SKY/WX    TMP DP  RH WIND       PRES   REMARKS
ROSWELL        CLEAR     77  44  30 SE10      29.95R
CARLSBAD       CLEAR     86  57  37 SE20G30   29.94R
HOBBS          CLEAR     81  57  44 SE13      30.01R


$$



USA.gov is the U.S. government's official web portal to all federal, state and local government web resources and services.